USTRANSCOM 7521


KCOF
Patrick Air Force Base
Cocoa Beach, Florida, US
KWRI
Joint Base McGuire Dix Lakehurst
Wrightstown, New Jersey, US

Route Details

Aircraft Information
Primary: Boeing 757-200SF
Backup: Not Available
Route Data
Distance: 768nm
Sched. Duration: 1h 55m
Avg. Duration: 1h 83m (+29m)
Times Flown: 4
Recm'd Route: APOLO ETECK AR18 DIW J174 SWL J121 SIE V44 PANZE V184 ZIGGI
Planned Altitude: 39,000ft
Origin Wx: KCOF 290356Z AUTO 20009KT 10SM CLR 24/21 A3008 RMK AO2 SLP191 T02370208 $
Dest. Wx: KWRI 290356Z 19006KT 10SM OVC006 20/20 A3007 RMK AO2A SLP182 T02030198 $
Notes: USTRANSCOM CONTRACT FLIGHT

Financial History
Total Freight: 163,928lbs
Average Load: 40,982lbs/flt
Fuel Used: 63,204lbs
Avg. Fuel Used: 15,801lbs/flt
Fuel Expense: $56,085
Avg. Fuel Expense: $14,021
Avg. Fuel Cost: $0.89/lbs
Total Gross Income: $227,860
Pilot Pay: $916
Total Expenses: $24,817
Total Revenue: $145,010
Average Revenue: $56,964.98